EHI
7 18 22 10 1 1 6 20 40 53 61 63 63 61 57 55 59 65 67 68 60 44 27 17 11 5 2 1 0 0 0 0 0 0 0 0 0 0 0 0 0 0 0
18 27 26 11 3 4 13 31 54 70 77 79 79 76 73 72 73 75 76 72 60 41 23 12 6 3 1 0 0 0 0 0 0 0 0 0 0 0 0 0 0 0 0
33 36 26 12 8 9 19 40 66 82 89 93 93 91 88 86 85 82 77 68 53 32 14 5 2 1 0 0 0 0 0 0 0 0 0 0 0 0 0 0 0 0 0
38 39 31 24 18 12 18 36 60 77 87 93 94 92 90 87 83 74 61 48 35 18 6 1 0 0 0 0 0 0 0 0 0 0 0 0 0 0 0 0 0 0 0
30 35 43 42 30 17 15 27 47 66 78 86 88 88 85 79 71 57 38 25 16 6 1 0 0 0 0 0 0 0 0 0 0 0 0 0 0 0 0 0 0 0 0
16 25 47 56 42 25 17 22 37 54 67 74 78 80 77 69 57 41 23 11 6 2 0 0 0 0 0 0 0 0 0 0 0 0 0 0 1 2 1 0 0 0 0
5 15 40 59 53 36 25 24 31 43 52 58 64 67 65 56 44 30 16 7 3 0 0 1 1 1 0 0 0 0 0 0 0 0 0 1 2 3 1 0 0 0 0
1 8 28 48 50 42 34 30 31 34 38 41 44 48 47 40 30 20 14 7 2 0 1 2 2 1 0 0 0 0 0 0 0 0 0 1 4 3 1 0 0 0 0
0 4 15 26 33 33 32 32 31 30 29 26 25 27 27 22 17 13 11 8 3 1 1 1 2 1 0 0 0 0 0 0 0 0 0 2 3 2 1 0 0 0 0
0 1 5 10 16 18 18 22 25 24 21 17 14 12 11 9 7 7 8 7 3 0 0 0 0 0 0 0 0 0 0 0 0 0 1 3 4 3 2 1 0 0 0
4 3 3 5 8 9 7 10 14 14 12 10 8 7 5 2 2 5 9 8 3 0 0 0 0 0 0 0 0 0 0 0 0 0 2 6 6 5 4 3 2 1 0
13 7 4 4 6 6 3 4 5 5 5 4 4 6 4 1 0 4 10 7 2 0 0 0 0 0 0 0 0 0 0 0 0 0 3 7 7 7 7 7 5 2 0
14 9 4 4 5 3 2 1 1 2 3 4 5 6 4 1 0 3 5 3 1 0 0 0 0 0 0 0 0 0 0 0 0 1 3 6 7 9 10 9 7 3 1
10 7 4 4 4 3 1 0 0 2 5 5 6 6 4 2 1 1 1 1 1 0 0 0 0 0 0 0 0 0 0 0 0 1 2 4 6 8 8 8 6 3 1
13 10 7 8 13 14 10 5 3 4 5 5 5 5 6 5 3 2 2 3 2 1 1 0 0 0 0 0 0 0 0 0 0 0 1 1 3 5 6 5 5 3 2
30 25 20 23 31 36 30 18 10 7 7 7 8 9 9 7 5 4 5 7 8 7 5 2 1 1 0 0 0 0 0 0 0 0 0 0 1 3 4 5 4 3 3
53 48 43 44 52 58 53 40 28 21 19 20 20 19 15 11 9 10 13 16 16 14 10 5 2 1 0 0 0 0 0 0 0 0 0 0 0 1 2 3 3 3 2
74 72 67 65 69 75 75 68 56 47 42 40 37 31 22 16 16 20 23 23 21 16 10 5 2 1 0 0 0 0 0 0 0 0 0 0 0 0 0 1 1 1 1
86 86 85 83 84 88 90 87 79 69 60 53 47 39 27 17 17 22 24 23 19 14 8 3 1 1 0 0 0 0 0 0 0 0 0 0 0 0 0 0 0 0 0
88 92 95 95 95 95 95 93 84 73 62 51 42 34 23 14 14 17 18 16 13 10 6 2 0 0 0 0 0 0 0 0 0 0 0 0 0 0 0 0 0 0 0
81 89 96 98 99 98 96 91 81 66 50 38 28 20 13 9 9 10 9 7 6 4 3 1 0 0 0 0 0 0 0 0 0 0 0 0 0 0 0 0 0 0 0
72 81 90 95 98 97 93 86 72 52 34 22 15 9 4 3 3 3 2 2 1 1 1 0 0 0 0 0 0 0 0 0 0 0 0 0 0 0 0 0 0 0 0
67 74 84 92 94 92 85 73 56 37 22 12 6 2 0 0 0 0 0 0 0 0 0 0 0 0 0 0 0 0 0 0 0 0 0 0 0 0 0 0 0 0 0
70 73 81 86 86 81 71 57 43 29 17 7 2 0 0 0 0 0 0 0 0 0 0 0 0 0 0 0 0 0 0 0 0 0 0 0 0 0 0 0 0 0 0
72 73 74 73 69 62 52 42 33 22 11 4 1 0 0 0 0 0 0 0 0 0 0 0 0 0 0 0 0 0 0 0 0 0 0 0 0 0 0 0 0 0 0
69 70 66 60 53 47 40 32 24 14 5 1 1 0 0 0 0 0 0 0 0 0 0 0 0 0 0 0 0 0 0 0 0 0 0 0 0 0 0 0 0 0 0
Wind_Speed
14 17 18 14 12 10 11 12 14 14 15 15 14 14 13 12 11 11 11 11 12 12 12 12 12 11 11 11 11 11 10 10 10 10 10 11 10 10 10 8 7 11 12
17 19 18 14 13 12 11 13 14 14 15 15 14 14 13 12 11 11 11 11 11 11 11 11 11 11 10 10 10 10 9 9 8 9 10 11 10 9 8 4 5 10 10
17 18 19 14 13 13 12 13 14 15 15 15 14 14 13 12 11 11 11 10 10 10 10 10 10 10 9 9 9 8 8 7 6 6 7 8 11 9 8 6 8 10 9
17 17 18 16 14 13 13 13 13 15 15 15 14 14 13 12 11 11 11 10 9 9 9 9 9 9 8 8 7 7 6 6 6 6 6 6 9 10 8 7 8 8 8
16 16 17 18 15 14 14 13 14 15 15 14 14 13 12 11 10 10 10 9 8 8 8 8 8 8 7 6 6 5 4 4 5 10 4 6 7 10 8 8 8 8 7
16 16 18 17 15 14 14 14 14 14 14 13 13 12 11 11 10 9 9 8 7 7 7 7 7 6 6 5 4 3 3 4 9 7 4 5 7 9 8 8 8 8 7
16 15 19 15 15 14 14 14 13 12 12 11 11 11 10 9 9 8 8 7 7 6 6 6 6 5 5 4 3 2 1 4 11 4 5 4 8 10 8 8 7 7 7
15 15 17 16 16 15 15 13 12 11 11 10 10 9 9 8 8 8 7 6 6 5 5 6 6 5 4 3 2 1 1 7 8 3 4 5 10 6 6 6 6 7 7
15 14 16 18 17 16 13 12 12 11 10 10 9 9 9 8 8 7 6 6 5 4 4 5 4 4 3 2 1 0 2 6 9 4 5 4 9 5 5 5 5 5 5
14 14 14 16 16 16 15 14 12 11 11 10 10 10 9 8 8 7 8 7 5 4 4 4 3 3 2 1 0 1 3 8 8 5 5 8 7 5 4 4 4 4 4
14 13 13 15 14 14 14 14 14 12 11 11 11 10 9 10 10 10 8 8 5 4 4 3 3 2 3 6 3 3 7 7 5 2 3 10 5 4 4 4 4 3 3
16 15 14 14 14 13 10 11 10 11 11 10 9 11 9 6 5 5 11 6 5 4 4 3 2 6 9 6 8 8 5 4 2 3 6 7 4 3 3 3 3 3 3
17 16 15 14 13 13 9 9 7 7 7 9 9 9 7 5 5 5 5 7 7 8 7 7 8 6 4 1 2 3 1 2 1 2 7 6 4 2 2 3 3 3 4
16 17 15 15 13 12 10 8 7 6 6 6 8 9 7 5 4 4 4 4 4 4 3 4 4 3 3 4 4 3 3 2 1 1 7 7 4 2 1 1 2 3 4
16 16 16 14 13 11 9 7 7 6 6 6 5 7 6 5 5 4 3 3 4 3 4 4 4 3 4 5 3 2 1 1 2 2 5 9 6 5 2 1 2 3 5
16 16 15 15 13 12 9 7 6 5 4 5 4 5 6 5 4 4 4 3 3 2 2 2 2 3 3 1 1 0 2 1 2 3 1 6 9 7 6 4 3 3 4
15 15 14 14 13 13 11 10 6 5 5 4 3 3 4 5 3 4 3 2 2 1 1 1 0 1 0 1 0 1 1 3 2 2 3 3 2 8 8 7 7 6 4
15 15 14 12 14 13 10 9 6 5 4 3 2 1 2 3 3 3 2 1 1 1 1 1 1 1 1 1 2 2 2 2 2 2 3 2 3 1 6 9 8 8 7
13 13 14 13 13 13 12 8 6 5 4 3 3 2 2 2 1 1 1 1 2 2 2 2 2 1 1 2 2 2 3 3 3 2 2 3 2 2 1 6 7 9 9
13 13 13 13 13 12 10 8 6 6 6 5 5 4 4 2 1 1 1 2 3 3 3 3 3 2 1 1 3 2 3 3 3 1 2 1 1 1 1 2 1 4 6
13 14 14 14 14 12 10 10 8 7 6 6 6 6 4 3 2 2 3 4 3 3 4 4 3 2 1 1 2 3 3 3 3 2 2 2 1 1 2 2 3 4 1
13 14 15 15 15 14 11 9 8 9 7 6 6 6 6 4 4 4 5 5 5 5 5 4 2 1 1 1 3 3 4 4 4 4 3 4 4 4 4 4 4 5 6
9 12 12 13 14 13 13 10 9 7 6 4 5 3 3 4 4 4 5 6 6 5 4 4 4 3 2 1 1 3 3 4 2 5 6 5 5 5 6 5 7 6 7
2 6 9 11 12 13 14 13 14 9 7 6 5 4 4 4 4 5 5 5 5 5 5 4 3 2 2 2 2 1 2 3 5 4 6 7 7 7 8 7 8 8 8
7 6 8 10 11 12 11 11 10 8 6 6 6 6 6 5 6 7 7 7 6 5 6 5 4 3 1 1 1 1 2 3 5 6 7 5 6 7 7 7 7 8 9
11 10 10 10 10 9 9 8 8 9 9 8 7 7 6 5 6 9 9 7 7 6 6 5 4 4 3 1 1 2 3 4 5 6 8 8 8 7 7 7 8 9 8
Wind_Direction
162 149 148 160 156 146 137 134 137 141 144 146 146 145 143 139 134 129 124 120 118 118 118 117 116 115 115 114 113 113 113 115 117 121 121 119 115 112 112 127 156 115 115
154 148 150 158 155 147 139 133 133 136 140 143 144 144 142 138 133 129 126 124 123 122 121 120 119 118 117 117 117 118 120 123 128 130 135 131 125 121 124 125 25 105 133
151 149 156 157 156 150 143 137 135 135 138 140 142 142 140 137 134 131 129 128 127 126 124 122 120 119 118 119 120 122 125 129 128 144 187 148 127 131 133 122 99 120 134
152 153 161 155 158 154 149 143 141 142 142 142 142 143 143 141 138 137 137 135 132 130 128 125 122 120 120 121 124 127 130 132 142 198 200 120 126 128 143 139 136 139 140
153 158 151 157 161 158 155 152 149 148 147 146 146 147 146 145 142 141 142 140 136 134 131 127 123 121 120 122 124 130 139 154 187 235 145 117 110 130 149 152 154 154 153
158 161 150 163 163 161 160 160 157 154 152 152 151 151 150 149 147 147 147 146 143 138 133 127 122 119 119 120 122 129 154 195 224 207 132 146 131 138 157 162 165 165 166
163 164 154 163 163 164 166 166 164 160 157 156 155 154 153 152 152 153 154 154 151 147 138 129 122 119 116 115 115 121 186 237 254 170 160 166 113 135 164 171 170 173 179
165 166 152 161 167 169 172 171 169 165 163 161 159 157 155 154 156 160 162 161 158 152 143 133 127 122 116 109 104 98 271 267 236 175 168 138 107 147 171 176 176 181 188
168 168 160 169 173 175 176 174 172 168 166 165 162 160 160 162 166 170 170 168 163 157 148 139 133 126 120 115 107 67 284 278 260 175 169 125 119 156 172 173 177 185 192
173 174 168 175 176 180 181 180 178 173 172 170 169 171 170 172 179 182 189 168 173 170 163 151 140 128 130 136 122 277 260 256 241 186 165 111 124 160 170 172 178 184 194
181 176 177 179 181 186 186 173 181 181 179 178 180 178 186 198 190 186 189 148 177 180 174 160 146 150 203 181 180 232 245 241 184 215 103 95 128 166 171 173 180 187 194
185 185 183 186 182 188 187 171 189 191 181 200 192 184 201 207 208 208 124 152 185 189 189 170 174 211 233 194 171 210 219 231 216 163 99 100 128 172 180 174 182 191 198
186 190 190 188 187 189 186 182 189 195 181 200 200 194 205 205 203 213 179 174 192 201 207 171 205 215 218 226 248 205 232 243 226 144 98 101 123 156 177 182 192 203 212
191 191 195 187 187 196 193 187 191 195 185 198 188 205 199 207 216 211 219 200 198 206 211 223 220 195 220 204 222 219 197 238 252 75 88 86 89 103 137 200 222 226 227
195 193 194 191 185 191 198 199 197 202 195 196 196 201 215 213 215 209 215 221 229 210 195 223 225 191 215 203 212 229 264 19 325 327 109 88 73 64 47 340 288 272 256
198 196 192 191 184 187 192 201 197 202 200 211 202 205 212 231 221 219 211 207 225 230 244 238 213 205 230 231 216 330 301 324 58 313 353 113 91 71 55 38 10 318 287
198 196 193 190 185 187 193 195 194 194 187 201 193 202 216 237 228 236 234 204 202 171 152 245 143 234 213 204 173 359 336 333 355 340 314 307 137 97 72 55 44 28 2
201 193 191 190 186 185 189 188 185 176 165 173 164 175 217 258 256 247 235 193 133 143 140 104 65 49 27 318 346 339 328 305 322 317 299 295 319 341 94 66 54 44 32
203 194 188 192 188 183 179 172 165 144 137 126 102 68 37 353 301 250 213 142 137 119 100 100 79 49 18 350 327 322 316 315 317 321 334 331 8 319 5 100 81 58 42
197 193 190 187 185 176 168 158 146 132 127 116 104 92 75 52 18 110 137 128 121 107 98 89 87 57 27 328 299 307 306 306 290 287 269 258 274 289 337 353 231 105 77
197 192 189 187 179 173 166 161 154 146 134 123 119 122 127 142 167 161 149 139 136 126 118 119 114 128 193 253 252 247 240 243 259 250 253 250 196 257 277 287 297 311 238
202 195 191 187 178 174 167 158 152 140 137 139 148 148 154 157 164 166 168 157 143 133 136 141 149 186 190 222 263 266 252 222 220 224 231 231 245 248 256 262 293 282 293
201 195 190 184 172 165 152 140 135 131 137 150 152 149 139 144 157 161 170 154 145 147 150 149 161 184 180 178 283 270 271 278 234 198 226 237 243 264 270 273 265 275 276
135 168 167 161 155 152 151 154 154 158 158 159 146 134 125 125 136 133 128 122 123 121 129 135 128 144 169 178 169 282 311 323 293 271 211 218 232 251 267 278 281 273 267
70 102 129 136 140 145 150 152 153 147 130 125 125 125 111 99 97 98 98 99 98 97 100 100 102 102 123 171 195 210 232 242 254 274 284 272 252 253 259 265 274 279 280
63 76 92 103 105 109 113 121 127 127 128 132 132 123 108 96 88 88 90 91 93 95 96 97 99 95 81 69 319 284 273 278 279 283 283 281 280 278 280 284 282 277 276